Time,TemperatureF,DewpointF,PressureIn,WindDirection,WindDirectionDegrees,WindSpeedMPH,WindSpeedGustMPH,Humidity,HourlyPrecipIn,Conditions,Clouds,dailyrainin,SoftwareType,DateUTC
2013-02-24 00:00:00,41.6,41.6,29.79,NNW,344,0.0,2.0,100,0.00,,,0.14,Wunderground v.1.15,2013-02-24 05:00:00,
2013-02-24 00:03:00,41.5,41.5,29.79,NNW,344,1.0,2.0,100,0.00,,,0.14,Wunderground v.1.15,2013-02-24 05:03:00,
2013-02-24 00:04:00,41.5,41.5,29.79,NNW,344,3.0,3.0,100,0.00,,,0.14,Wunderground v.1.15,2013-02-24 05:04:00,
2013-02-24 00:09:00,41.5,41.5,29.78,NNW,344,0.0,3.0,100,0.00,,,0.14,Wunderground v.1.15,2013-02-24 05:09:00,
2013-02-24 00:15:00,41.6,41.6,29.78,NNW,344,3.0,4.0,100,0.00,,,0.00,Wunderground v.1.15,2013-02-24 05:15:00,
2013-02-24 00:21:00,41.6,41.6,29.79,NNW,344,3.0,4.0,100,0.00,,,0.00,Wunderground v.1.15,2013-02-24 05:21:00,
2013-02-24 00:27:00,41.4,41.4,29.79,NNW,344,3.0,5.0,100,0.00,,,0.00,Wunderground v.1.15,2013-02-24 05:27:00,
2013-02-24 00:32:00,41.3,41.3,29.79,NNW,344,3.0,3.0,100,0.00,,,0.00,Wunderground v.1.15,2013-02-24 05:32:00,
2013-02-24 00:37:00,41.1,41.1,29.80,NNW,344,6.0,6.0,100,0.00,,,0.00,Wunderground v.1.15,2013-02-24 05:37:00,
2013-02-24 00:43:00,40.9,40.9,29.80,NNW,344,2.0,6.0,100,0.00,,,0.00,Wunderground v.1.15,2013-02-24 05:43:00,
2013-02-24 00:49:00,40.8,40.8,29.80,NNW,344,1.0,6.0,100,0.00,,,0.00,Wunderground v.1.15,2013-02-24 05:49:00,
2013-02-24 00:55:00,40.7,40.7,29.80,NNW,344,2.0,3.0,100,0.00,,,0.00,Wunderground v.1.15,2013-02-24 05:55:00,
2013-02-24 01:01:00,40.7,40.7,29.80,NNW,344,1.0,2.0,100,0.00,,,0.00,Wunderground v.1.15,2013-02-24 06:01:00,
2013-02-24 01:06:00,40.8,40.8,29.79,NNW,344,2.0,4.0,100,0.00,,,0.00,Wunderground v.1.15,2013-02-24 06:06:00,
2013-02-24 01:11:00,41.1,41.1,29.79,NNW,344,3.0,3.0,100,0.00,,,0.00,Wunderground v.1.15,2013-02-24 06:11:00,
2013-02-24 01:16:00,41.4,41.4,29.78,NNW,344,4.0,4.0,100,0.00,,,0.00,Wunderground v.1.15,2013-02-24 06:16:00,
2013-02-24 01:21:00,41.5,41.5,29.78,NNW,345,6.0,6.0,100,0.00,,,0.00,Wunderground v.1.15,2013-02-24 06:21:00,
2013-02-24 01:27:00,41.5,41.5,29.79,North,5,3.0,6.0,100,0.00,,,0.00,Wunderground v.1.15,2013-02-24 06:27:00,
2013-02-24 01:32:00,41.5,41.5,29.79,NNE,13,5.0,5.0,100,0.00,,,0.00,Wunderground v.1.15,2013-02-24 06:32:00,
2013-02-24 01:37:00,41.3,41.3,29.79,NNE,15,1.0,5.0,100,0.00,,,0.00,Wunderground v.1.15,2013-02-24 06:37:00,
2013-02-24 01:43:00,41.2,41.2,29.79,NE,37,1.0,3.0,100,0.00,,,0.00,Wunderground v.1.15,2013-02-24 06:43:00,
2013-02-24 01:49:00,41.1,41.1,29.79,North,355,5.0,6.0,100,0.00,,,0.00,Wunderground v.1.15,2013-02-24 06:49:00,
2013-02-24 01:55:00,41.1,41.1,29.79,NNE,21,1.0,6.0,100,0.00,,,0.00,Wunderground v.1.15,2013-02-24 06:55:00,
2013-02-24 02:00:00,41.1,41.1,29.79,NNE,21,1.0,2.0,100,0.00,,,0.00,Wunderground v.1.15,2013-02-24 07:00:00,
2013-02-24 02:05:00,41.2,41.2,29.79,NNW,344,1.0,6.0,100,0.00,,,0.00,Wunderground v.1.15,2013-02-24 07:05:00,
2013-02-24 02:10:00,41.3,41.3,29.79,NNW,344,1.0,2.0,100,0.00,,,0.00,Wunderground v.1.15,2013-02-24 07:10:00,
2013-02-24 02:15:00,41.4,41.4,29.79,NNW,342,5.0,5.0,100,0.00,,,0.00,Wunderground v.1.15,2013-02-24 07:15:00,
2013-02-24 02:20:00,41.4,41.4,29.79,North,355,2.0,2.0,100,0.00,,,0.00,Wunderground v.1.15,2013-02-24 07:20:00,
2013-02-24 02:25:00,41.5,41.5,29.78,NNW,332,1.0,7.0,100,0.00,,,0.00,Wunderground v.1.15,2013-02-24 07:25:00,
2013-02-24 02:30:00,41.6,41.6,29.78,North,360,3.0,3.0,100,0.00,,,0.00,Wunderground v.1.15,2013-02-24 07:30:00,
2013-02-24 02:35:00,41.7,41.7,29.77,NNW,346,2.0,7.0,100,0.00,,,0.00,Wunderground v.1.15,2013-02-24 07:35:00,
2013-02-24 02:40:00,41.6,41.6,29.78,NNW,344,3.0,3.0,100,0.00,,,0.00,Wunderground v.1.15,2013-02-24 07:40:00,
2013-02-24 02:45:00,41.5,41.5,29.77,NNE,24,1.0,7.0,100,0.00,,,0.00,Wunderground v.1.15,2013-02-24 07:45:00,
2013-02-24 02:50:00,41.5,41.5,29.78,NNW,327,1.0,3.0,100,0.00,,,0.00,Wunderground v.1.15,2013-02-24 07:50:00,
2013-02-24 02:55:00,41.4,41.4,29.77,NNE,18,3.0,6.0,100,0.00,,,0.00,Wunderground v.1.15,2013-02-24 07:55:00,
2013-02-24 03:00:00,41.4,41.4,29.78,NW,325,1.0,3.0,100,0.00,,,0.00,Wunderground v.1.15,2013-02-24 08:00:00,
2013-02-24 03:05:00,41.3,41.3,29.78,NNW,327,1.0,6.0,100,0.00,,,0.00,Wunderground v.1.15,2013-02-24 08:05:00,
2013-02-24 03:10:00,41.2,41.2,29.78,NNW,336,2.0,3.0,100,0.00,,,0.00,Wunderground v.1.15,2013-02-24 08:10:00,
2013-02-24 03:15:00,41.3,41.3,29.78,North,355,1.0,7.0,100,0.00,,,0.00,Wunderground v.1.15,2013-02-24 08:15:00,
2013-02-24 03:20:00,41.3,41.3,29.78,NNW,343,2.0,4.0,100,0.00,,,0.00,Wunderground v.1.15,2013-02-24 08:20:00,
2013-02-24 03:25:00,41.3,41.3,29.77,NNW,340,3.0,6.0,100,0.00,,,0.00,Wunderground v.1.15,2013-02-24 08:25:00,
2013-02-24 03:30:00,41.3,41.3,29.77,NNW,330,4.0,4.0,100,0.00,,,0.00,Wunderground v.1.15,2013-02-24 08:30:00,
2013-02-24 03:35:00,41.2,41.2,29.77,NNW,331,2.0,5.0,100,0.00,,,0.00,Wunderground v.1.15,2013-02-24 08:35:00,
2013-02-24 03:40:00,41.1,41.1,29.77,NE,42,3.0,6.0,100,0.00,,,0.00,Wunderground v.1.15,2013-02-24 08:40:00,
2013-02-24 03:45:00,41.0,41.0,29.77,NE,45,2.0,6.0,100,0.00,,,0.00,Wunderground v.1.15,2013-02-24 08:45:00,
2013-02-24 03:50:00,40.9,40.9,29.77,NE,37,4.0,9.0,100,0.00,,,0.00,Wunderground v.1.15,2013-02-24 08:50:00,
2013-02-24 03:55:00,40.9,40.9,29.77,North,360,1.0,9.0,100,0.00,,,0.00,Wunderground v.1.15,2013-02-24 08:55:00,
2013-02-24 04:00:00,40.9,40.9,29.77,North,355,6.0,6.0,100,0.00,,,0.00,Wunderground v.1.15,2013-02-24 09:00:00,
2013-02-24 04:05:00,41.0,41.0,29.77,NNE,18,2.0,6.0,100,0.00,,,0.00,Wunderground v.1.15,2013-02-24 09:05:00,
2013-02-24 04:10:00,41.0,41.0,29.77,North,355,6.0,7.0,100,0.00,,,0.00,Wunderground v.1.15,2013-02-24 09:10:00,
2013-02-24 04:15:00,41.0,41.0,29.78,North,355,3.0,7.0,100,0.00,,,0.00,Wunderground v.1.15,2013-02-24 09:15:00,
2013-02-24 04:20:00,40.9,40.9,29.78,NNE,19,2.0,4.0,100,0.00,,,0.00,Wunderground v.1.15,2013-02-24 09:20:00,
2013-02-24 04:25:00,40.8,40.8,29.78,NNE,19,2.0,4.0,100,0.00,,,0.00,Wunderground v.1.15,2013-02-24 09:25:00,
2013-02-24 04:30:00,40.7,40.7,29.79,North,360,4.0,6.0,100,0.00,,,0.00,Wunderground v.1.15,2013-02-24 09:30:00,
2013-02-24 04:36:00,40.7,40.7,29.79,North,5,0.0,6.0,100,0.00,,,0.00,Wunderground v.1.15,2013-02-24 09:36:00,
2013-02-24 04:41:00,40.7,40.7,29.78,North,5,2.0,4.0,100,0.00,,,0.00,Wunderground v.1.15,2013-02-24 09:41:00,
2013-02-24 04:46:00,40.8,40.8,29.78,North,5,1.0,4.0,100,0.00,,,0.00,Wunderground v.1.15,2013-02-24 09:46:00,
2013-02-24 04:51:00,40.7,40.7,29.78,North,360,5.0,5.0,100,0.00,,,0.00,Wunderground v.1.15,2013-02-24 09:51:00,
2013-02-24 04:56:00,40.6,40.6,29.78,North,355,2.0,6.0,100,0.00,,,0.00,Wunderground v.1.15,2013-02-24 09:56:00,
2013-02-24 05:01:00,40.5,40.5,29.78,North,355,2.0,3.0,100,0.00,,,0.00,Wunderground v.1.15,2013-02-24 10:01:00,
2013-02-24 05:06:00,40.3,40.3,29.78,North,355,1.0,4.0,100,0.00,,,0.00,Wunderground v.1.15,2013-02-24 10:06:00,
2013-02-24 05:11:00,40.3,40.3,29.79,North,355,2.0,3.0,100,0.00,,,0.00,Wunderground v.1.15,2013-02-24 10:11:00,
2013-02-24 05:16:00,40.2,40.2,29.79,North,355,2.0,5.0,100,0.00,,,0.00,Wunderground v.1.15,2013-02-24 10:16:00,
2013-02-24 05:21:00,40.1,40.1,29.78,North,355,1.0,3.0,100,0.00,,,0.00,Wunderground v.1.15,2013-02-24 10:21:00,
2013-02-24 05:26:00,40.1,40.1,29.78,North,11,0.0,5.0,100,0.00,,,0.00,Wunderground v.1.15,2013-02-24 10:26:00,
2013-02-24 05:31:00,40.2,40.2,29.77,NNE,12,1.0,5.0,100,0.00,,,0.00,Wunderground v.1.15,2013-02-24 10:31:00,
2013-02-24 05:36:00,40.2,40.2,29.78,NNE,12,1.0,5.0,100,0.00,,,0.00,Wunderground v.1.15,2013-02-24 10:36:00,
2013-02-24 05:41:00,40.1,40.1,29.78,North,11,2.0,3.0,100,0.00,,,0.00,Wunderground v.1.15,2013-02-24 10:41:00,
2013-02-24 05:46:00,40.1,40.1,29.78,North,10,2.0,4.0,100,0.00,,,0.00,Wunderground v.1.15,2013-02-24 10:46:00,
2013-02-24 05:51:00,40.0,40.0,29.79,North,9,1.0,6.0,100,0.00,,,0.00,Wunderground v.1.15,2013-02-24 10:51:00,
2013-02-24 05:56:00,40.0,40.0,29.80,North,5,3.0,6.0,100,0.00,,,0.00,Wunderground v.1.15,2013-02-24 10:56:00,
2013-02-24 06:01:00,39.9,39.9,29.80,North,5,0.0,3.0,100,0.00,,,0.00,Wunderground v.1.15,2013-02-24 11:01:00,
2013-02-24 06:06:00,39.9,39.9,29.80,North,360,2.0,5.0,100,0.00,,,0.00,Wunderground v.1.15,2013-02-24 11:06:00,
2013-02-24 06:11:00,39.9,39.9,29.81,NNW,335,7.0,10.0,100,0.00,,,0.00,Wunderground v.1.15,2013-02-24 11:11:00,
2013-02-24 06:16:00,39.8,39.8,29.81,NNW,336,7.0,10.0,100,0.00,,,0.00,Wunderground v.1.15,2013-02-24 11:16:00,
2013-02-24 06:21:00,39.8,39.8,29.81,NNW,336,5.0,9.0,100,0.00,,,0.00,Wunderground v.1.15,2013-02-24 11:21:00,
2013-02-24 06:26:00,39.8,39.8,29.82,NNW,336,5.0,9.0,100,0.00,,,0.00,Wunderground v.1.15,2013-02-24 11:26:00,
2013-02-24 06:31:00,39.8,39.8,29.82,NNW,336,5.0,6.0,100,0.00,,,0.00,Wunderground v.1.15,2013-02-24 11:31:00,
2013-02-24 06:37:00,39.7,39.7,29.82,NNW,336,3.0,6.0,100,0.00,,,0.00,Wunderground v.1.15,2013-02-24 11:37:00,
2013-02-24 06:42:00,39.6,39.6,29.82,NNW,336,5.0,6.0,100,0.00,,,0.00,Wunderground v.1.15,2013-02-24 11:42:00,
2013-02-24 06:47:00,39.5,39.5,29.83,NNW,336,5.0,6.0,100,0.00,,,0.00,Wunderground v.1.15,2013-02-24 11:47:00,
2013-02-24 06:52:00,39.4,39.4,29.84,NNW,336,5.0,6.0,100,0.00,,,0.00,Wunderground v.1.15,2013-02-24 11:52:00,
2013-02-24 06:57:00,39.4,39.4,29.84,NNW,335,7.0,8.0,100,0.00,,,0.00,Wunderground v.1.15,2013-02-24 11:57:00,
2013-02-24 07:02:00,39.6,39.6,29.83,NNW,331,6.0,8.0,100,0.00,,,0.00,Wunderground v.1.15,2013-02-24 12:02:00,
2013-02-24 07:07:00,39.7,39.7,29.83,NNW,332,5.0,8.0,100,0.00,,,0.00,Wunderground v.1.15,2013-02-24 12:07:00,
2013-02-24 07:12:00,39.7,39.7,29.83,NNW,332,3.0,6.0,100,0.00,,,0.00,Wunderground v.1.15,2013-02-24 12:12:00,
2013-02-24 07:17:00,39.8,39.8,29.83,NNW,332,2.0,6.0,100,0.00,,,0.01,Wunderground v.1.15,2013-02-24 12:17:00,
2013-02-24 07:22:00,40.0,40.0,29.83,NNW,331,4.0,4.0,100,0.08,,,0.02,Wunderground v.1.15,2013-02-24 12:22:00,
2013-02-24 07:27:00,40.1,40.1,29.83,NNW,332,5.0,7.0,100,0.08,,,0.02,Wunderground v.1.15,2013-02-24 12:27:00,
2013-02-24 07:33:00,40.0,40.0,29.83,NNW,332,6.0,7.0,100,0.05,,,0.02,Wunderground v.1.15,2013-02-24 12:33:00,
2013-02-24 07:38:00,40.0,40.0,29.84,NNW,332,7.0,7.0,100,0.00,,,0.02,Wunderground v.1.15,2013-02-24 12:38:00,
2013-02-24 07:43:00,39.8,39.8,29.84,NNW,331,6.0,6.0,100,0.00,,,0.02,Wunderground v.1.15,2013-02-24 12:43:00,
2013-02-24 07:48:00,39.7,39.7,29.84,NNW,332,4.0,6.0,100,0.00,,,0.02,Wunderground v.1.15,2013-02-24 12:48:00,
2013-02-24 07:53:00,39.8,39.8,29.84,NNW,332,4.0,6.0,100,0.00,,,0.02,Wunderground v.1.15,2013-02-24 12:53:00,
2013-02-24 07:58:00,39.8,39.8,29.84,NNW,331,5.0,6.0,100,0.00,,,0.02,Wunderground v.1.15,2013-02-24 12:58:00,
2013-02-24 08:03:00,40.0,40.0,29.84,NNW,331,2.0,6.0,100,0.00,,,0.02,Wunderground v.1.15,2013-02-24 13:03:00,
2013-02-24 08:08:00,40.2,40.2,29.83,NNW,332,1.0,7.0,100,0.00,,,0.02,Wunderground v.1.15,2013-02-24 13:08:00,
2013-02-24 08:13:00,40.5,40.5,29.84,NNW,332,2.0,5.0,100,0.00,,,0.02,Wunderground v.1.15,2013-02-24 13:13:00,
2013-02-24 08:18:00,40.6,40.6,29.84,NNW,332,5.0,8.0,100,0.00,,,0.02,Wunderground v.1.15,2013-02-24 13:18:00,
2013-02-24 08:23:00,40.5,40.5,29.84,NNW,331,4.0,9.0,100,0.00,,,0.02,Wunderground v.1.15,2013-02-24 13:23:00,
2013-02-24 08:28:00,40.6,40.6,29.84,NNW,332,0.0,9.0,100,0.00,,,0.02,Wunderground v.1.15,2013-02-24 13:28:00,
2013-02-24 08:33:00,40.9,40.9,29.84,NNW,332,4.0,5.0,100,0.00,,,0.02,Wunderground v.1.15,2013-02-24 13:33:00,
2013-02-24 08:38:00,41.1,41.1,29.84,NNW,331,2.0,7.0,100,0.00,,,0.02,Wunderground v.1.15,2013-02-24 13:38:00,
2013-02-24 08:43:00,41.1,41.1,29.85,NNW,331,3.0,5.0,100,0.00,,,0.02,Wunderground v.1.15,2013-02-24 13:43:00,
2013-02-24 08:48:00,41.3,41.3,29.84,NNW,332,0.0,5.0,100,0.00,,,0.02,Wunderground v.1.15,2013-02-24 13:48:00,
2013-02-24 08:53:00,41.4,41.4,29.84,NNW,331,1.0,4.0,100,0.00,,,0.02,Wunderground v.1.15,2013-02-24 13:53:00,
2013-02-24 08:58:00,41.6,41.6,29.84,NNW,331,0.0,4.0,100,0.00,,,0.02,Wunderground v.1.15,2013-02-24 13:58:00,
2013-02-24 09:03:00,41.7,41.7,29.84,NNW,332,3.0,5.0,100,0.00,,,0.02,Wunderground v.1.15,2013-02-24 14:03:00,
2013-02-24 09:08:00,41.4,41.4,29.85,NNW,332,4.0,6.0,100,0.00,,,0.02,Wunderground v.1.15,2013-02-24 14:08:00,
2013-02-24 09:13:00,41.1,41.1,29.85,NNW,332,6.0,8.0,100,0.00,,,0.02,Wunderground v.1.15,2013-02-24 14:13:00,
2013-02-24 09:18:00,40.8,40.8,29.85,NNW,332,3.0,8.0,100,0.00,,,0.02,Wunderground v.1.15,2013-02-24 14:18:00,
2013-02-24 09:23:00,40.6,40.6,29.85,NNW,331,3.0,6.0,100,0.00,,,0.02,Wunderground v.1.15,2013-02-24 14:23:00,
2013-02-24 09:28:00,40.5,40.5,29.85,NNW,331,3.0,6.0,100,0.00,,,0.02,Wunderground v.1.15,2013-02-24 14:28:00,
2013-02-24 09:33:00,40.5,40.5,29.85,NNW,331,3.0,5.0,100,0.00,,,0.02,Wunderground v.1.15,2013-02-24 14:33:00,
2013-02-24 09:38:00,40.4,40.4,29.85,NNW,332,4.0,5.0,100,0.00,,,0.02,Wunderground v.1.15,2013-02-24 14:38:00,
2013-02-24 09:43:00,40.3,40.3,29.86,NNW,332,3.0,4.0,100,0.00,,,0.02,Wunderground v.1.15,2013-02-24 14:43:00,
2013-02-24 09:48:00,40.2,40.2,29.86,NNW,332,3.0,4.0,100,0.00,,,0.02,Wunderground v.1.15,2013-02-24 14:48:00,
2013-02-24 09:53:00,40.2,40.2,29.85,NNW,331,2.0,3.0,100,0.00,,,0.02,Wunderground v.1.15,2013-02-24 14:53:00,
2013-02-24 09:58:00,40.2,40.2,29.85,NNW,332,2.0,3.0,100,0.00,,,0.02,Wunderground v.1.15,2013-02-24 14:58:00,
2013-02-24 10:04:00,40.4,40.4,29.86,NNW,330,2.0,4.0,100,0.00,,,0.02,Wunderground v.1.15,2013-02-24 15:04:00,
2013-02-24 10:09:00,40.5,40.5,29.86,NW,310,4.0,4.0,100,0.00,,,0.02,Wunderground v.1.15,2013-02-24 15:09:00,
2013-02-24 10:14:00,40.7,40.7,29.86,NW,310,4.0,4.0,100,0.00,,,0.02,Wunderground v.1.15,2013-02-24 15:14:00,
2013-02-24 10:19:00,40.9,40.9,29.86,NW,310,3.0,5.0,100,0.00,,,0.02,Wunderground v.1.15,2013-02-24 15:19:00,
2013-02-24 10:24:00,41.3,41.3,29.87,NW,310,2.0,4.0,100,0.00,,,0.02,Wunderground v.1.15,2013-02-24 15:24:00,
2013-02-24 10:29:00,41.6,41.6,29.87,NW,310,3.0,4.0,100,0.00,,,0.02,Wunderground v.1.15,2013-02-24 15:29:00,
2013-02-24 10:34:00,41.7,41.7,29.87,NW,310,0.0,3.0,100,0.00,,,0.02,Wunderground v.1.15,2013-02-24 15:34:00,
2013-02-24 10:39:00,41.7,41.7,29.87,NW,310,1.0,3.0,100,0.00,,,0.02,Wunderground v.1.15,2013-02-24 15:39:00,
2013-02-24 10:44:00,41.8,41.8,29.87,NW,310,1.0,2.0,100,0.00,,,0.02,Wunderground v.1.15,2013-02-24 15:44:00,
2013-02-24 10:49:00,42.2,42.2,29.87,NW,310,0.0,2.0,100,0.00,,,0.02,Wunderground v.1.15,2013-02-24 15:49:00,
2013-02-24 10:54:00,42.3,42.3,29.86,NW,310,1.0,1.0,100,0.00,,,0.02,Wunderground v.1.15,2013-02-24 15:54:00,
2013-02-24 10:59:00,42.4,42.4,29.86,NW,310,3.0,3.0,100,0.00,,,0.02,Wunderground v.1.15,2013-02-24 15:59:00,
2013-02-24 11:04:00,42.6,42.6,29.86,NW,310,2.0,2.0,100,0.00,,,0.02,Wunderground v.1.15,2013-02-24 16:04:00,
2013-02-24 11:09:00,42.8,42.8,29.87,NW,310,3.0,4.0,100,0.00,,,0.02,Wunderground v.1.15,2013-02-24 16:09:00,
2013-02-24 11:14:00,43.0,43.0,29.86,NW,310,4.0,4.0,100,0.00,,,0.02,Wunderground v.1.15,2013-02-24 16:14:00,
2013-02-24 11:19:00,42.9,42.9,29.86,NW,310,2.0,4.0,100,0.00,,,0.02,Wunderground v.1.15,2013-02-24 16:19:00,
2013-02-24 11:24:00,42.5,42.5,29.86,NW,310,4.0,6.0,100,0.00,,,0.02,Wunderground v.1.15,2013-02-24 16:24:00,
2013-02-24 11:29:00,41.9,41.9,29.86,WNW,300,7.0,12.0,100,0.00,,,0.02,Wunderground v.1.15,2013-02-24 16:29:00,
2013-02-24 11:34:00,41.4,41.4,29.85,NW,310,12.0,13.0,100,0.00,,,0.02,Wunderground v.1.15,2013-02-24 16:34:00,
2013-02-24 11:39:00,41.2,41.2,29.85,NW,309,12.0,14.0,100,0.00,,,0.02,Wunderground v.1.15,2013-02-24 16:39:00,
2013-02-24 11:44:00,41.4,41.4,29.85,NW,309,12.0,14.0,100,0.00,,,0.02,Wunderground v.1.15,2013-02-24 16:44:00,
2013-02-24 11:49:00,41.7,41.7,29.85,NW,314,13.0,14.0,100,0.00,,,0.02,Wunderground v.1.15,2013-02-24 16:49:00,
2013-02-24 11:54:00,42.1,42.1,29.85,NW,311,14.0,18.0,100,0.00,,,0.02,Wunderground v.1.15,2013-02-24 16:54:00,
2013-02-24 11:59:00,42.4,42.4,29.85,NW,313,14.0,18.0,100,0.00,,,0.02,Wunderground v.1.15,2013-02-24 16:59:00,
2013-02-24 12:04:00,42.7,42.7,29.85,NW,313,13.0,15.0,100,0.00,,,0.02,Wunderground v.1.15,2013-02-24 17:04:00,
2013-02-24 12:09:00,42.8,42.8,29.85,NW,310,12.0,15.0,100,0.00,,,0.02,Wunderground v.1.15,2013-02-24 17:09:00,
2013-02-24 12:14:00,43.0,42.7,29.85,NW,314,11.0,14.0,99,0.00,,,0.02,Wunderground v.1.15,2013-02-24 17:14:00,
2013-02-24 12:19:00,43.0,42.5,29.85,NW,322,10.0,14.0,98,0.00,,,0.02,Wunderground v.1.15,2013-02-24 17:19:00,
2013-02-24 12:24:00,42.8,41.7,29.85,NW,322,10.0,12.0,96,0.00,,,0.02,Wunderground v.1.15,2013-02-24 17:24:00,
2013-02-24 12:29:00,42.8,41.5,29.84,NW,317,12.0,13.0,95,0.00,,,0.02,Wunderground v.1.15,2013-02-24 17:29:00,
2013-02-24 12:34:00,42.9,40.7,29.85,NW,323,12.0,14.0,92,0.00,,,0.02,Wunderground v.1.15,2013-02-24 17:34:00,
2013-02-24 12:39:00,43.1,40.4,29.84,NW,321,11.0,14.0,90,0.00,,,0.02,Wunderground v.1.15,2013-02-24 17:39:00,
2013-02-24 12:44:00,43.2,40.2,29.84,NW,326,13.0,15.0,89,0.00,,,0.02,Wunderground v.1.15,2013-02-24 17:44:00,
2013-02-24 12:49:00,43.4,39.8,29.84,NW,325,12.0,16.0,87,0.00,,,0.02,Wunderground v.1.15,2013-02-24 17:49:00,
2013-02-24 12:54:00,43.7,39.5,29.84,NW,317,11.0,15.0,85,0.00,,,0.02,Wunderground v.1.15,2013-02-24 17:54:00,
2013-02-24 12:59:00,43.8,39.6,29.84,NW,317,13.0,15.0,85,0.00,,,0.02,Wunderground v.1.15,2013-02-24 17:59:00,
2013-02-24 13:04:00,43.9,39.4,29.83,NW,315,12.0,14.0,84,0.00,,,0.02,Wunderground v.1.15,2013-02-24 18:04:00,
2013-02-24 13:09:00,43.8,39.3,29.83,NW,315,11.0,14.0,84,0.00,,,0.02,Wunderground v.1.15,2013-02-24 18:09:00,
2013-02-24 13:14:00,43.9,39.1,29.84,NW,320,11.0,13.0,83,0.00,,,0.02,Wunderground v.1.15,2013-02-24 18:14:00,
2013-02-24 13:19:00,44.1,39.0,29.84,NNW,329,12.0,16.0,82,0.00,,,0.02,Wunderground v.1.15,2013-02-24 18:19:00,
2013-02-24 13:24:00,44.3,39.2,29.84,NW,326,9.0,12.0,82,0.00,,,0.02,Wunderground v.1.15,2013-02-24 18:24:00,
2013-02-24 13:29:00,44.2,39.1,29.84,NW,323,9.0,12.0,82,0.00,,,0.02,Wunderground v.1.15,2013-02-24 18:29:00,
2013-02-24 13:35:00,44.1,39.3,29.84,NW,323,9.0,11.0,83,0.00,,,0.02,Wunderground v.1.15,2013-02-24 18:35:00,
2013-02-24 13:40:00,44.0,38.9,29.84,NW,322,11.0,11.0,82,0.00,,,0.02,Wunderground v.1.15,2013-02-24 18:40:00,
2013-02-24 13:45:00,44.0,38.9,29.83,NW,325,12.0,13.0,82,0.00,,,0.02,Wunderground v.1.15,2013-02-24 18:45:00,
2013-02-24 13:50:00,44.1,38.6,29.83,NW,325,13.0,13.0,81,0.00,,,0.02,Wunderground v.1.15,2013-02-24 18:50:00,
2013-02-24 13:55:00,44.3,38.5,29.83,NW,325,11.0,15.0,80,0.00,,,0.02,Wunderground v.1.15,2013-02-24 18:55:00,
2013-02-24 14:00:00,44.3,38.8,29.83,NNW,330,13.0,13.0,81,0.00,,,0.02,Wunderground v.1.15,2013-02-24 19:00:00,
2013-02-24 14:05:00,44.3,38.5,29.83,NNW,333,13.0,15.0,80,0.00,,,0.02,Wunderground v.1.15,2013-02-24 19:05:00,
2013-02-24 14:10:00,45.0,38.2,29.83,NNW,331,15.0,15.0,77,0.00,,,0.02,Wunderground v.1.15,2013-02-24 19:10:00,
2013-02-24 14:15:00,45.3,38.2,29.83,NNW,327,12.0,16.0,76,0.00,,,0.02,Wunderground v.1.15,2013-02-24 19:15:00,
2013-02-24 14:20:00,45.1,38.3,29.83,NNW,331,11.0,12.0,77,0.00,,,0.02,Wunderground v.1.15,2013-02-24 19:20:00,
2013-02-24 14:25:00,45.1,38.0,29.84,NNW,330,13.0,14.0,76,0.00,,,0.02,Wunderground v.1.15,2013-02-24 19:25:00,
2013-02-24 14:30:00,45.0,38.2,29.83,NNW,331,10.0,11.0,77,0.00,,,0.02,Wunderground v.1.15,2013-02-24 19:30:00,
2013-02-24 14:35:00,44.9,38.5,29.83,NW,325,11.0,12.0,78,0.00,,,0.02,Wunderground v.1.15,2013-02-24 19:35:00,
2013-02-24 14:40:00,44.9,38.5,29.84,NNW,327,9.0,11.0,78,0.00,,,0.02,Wunderground v.1.15,2013-02-24 19:40:00,
2013-02-24 14:45:00,44.7,38.6,29.84,NNW,331,10.0,12.0,79,0.00,,,0.02,Wunderground v.1.15,2013-02-24 19:45:00,
2013-02-24 14:50:00,45.0,38.2,29.83,NNW,332,8.0,10.0,77,0.00,,,0.02,Wunderground v.1.15,2013-02-24 19:50:00,
2013-02-24 14:55:00,45.2,38.4,29.83,NNW,329,10.0,12.0,77,0.00,,,0.02,Wunderground v.1.15,2013-02-24 19:55:00,
2013-02-24 15:00:00,45.6,37.4,29.83,North,349,4.0,10.0,73,0.00,,,0.02,Wunderground v.1.15,2013-02-24 20:00:00,
2013-02-24 15:05:00,46.3,37.8,29.83,NNW,335,13.0,13.0,72,0.00,,,0.02,Wunderground v.1.15,2013-02-24 20:05:00,
2013-02-24 15:10:00,46.5,38.3,29.83,NNW,336,12.0,12.0,73,0.00,,,0.02,Wunderground v.1.15,2013-02-24 20:10:00,
2013-02-24 15:15:00,46.0,38.5,29.83,NNW,333,10.0,12.0,75,0.00,,,0.02,Wunderground v.1.15,2013-02-24 20:15:00,
2013-02-24 15:20:00,46.1,37.6,29.83,NNW,336,12.0,14.0,72,0.00,,,0.02,Wunderground v.1.15,2013-02-24 20:20:00,
2013-02-24 15:25:00,46.4,39.6,29.84,NW,323,12.0,14.0,77,0.00,,,0.02,Wunderground v.1.15,2013-02-24 20:25:00,
2013-02-24 15:30:00,46.1,38.3,29.84,NNW,337,11.0,12.0,74,0.00,,,0.02,Wunderground v.1.15,2013-02-24 20:30:00,
2013-02-24 15:35:00,46.1,38.3,29.84,NW,323,10.0,14.0,74,0.00,,,0.02,Wunderground v.1.15,2013-02-24 20:35:00,
2013-02-24 15:40:00,46.2,37.7,29.84,NW,321,13.0,15.0,72,0.00,,,0.02,Wunderground v.1.15,2013-02-24 20:40:00,
2013-02-24 15:45:00,46.3,37.8,29.84,NW,326,13.0,17.0,72,0.00,,,0.02,Wunderground v.1.15,2013-02-24 20:45:00,
2013-02-24 15:50:00,46.0,38.2,29.84,NNW,329,14.0,14.0,74,0.00,,,0.02,Wunderground v.1.15,2013-02-24 20:50:00,
2013-02-24 15:55:00,45.7,37.9,29.84,NNW,330,15.0,17.0,74,0.00,,,0.02,Wunderground v.1.15,2013-02-24 20:55:00,
2013-02-24 16:00:00,45.6,37.8,29.84,NNW,331,18.0,20.0,74,0.00,,,0.02,Wunderground v.1.15,2013-02-24 21:00:00,
2013-02-24 16:05:00,45.8,38.0,29.84,NW,321,15.0,20.0,74,0.00,,,0.02,Wunderground v.1.15,2013-02-24 21:05:00,
2013-02-24 16:10:00,45.7,37.9,29.85,NW,319,17.0,17.0,74,0.00,,,0.02,Wunderground v.1.15,2013-02-24 21:10:00,
2013-02-24 16:15:00,45.6,37.8,29.85,NW,325,18.0,20.0,74,0.00,,,0.02,Wunderground v.1.15,2013-02-24 21:15:00,
2013-02-24 16:21:00,45.9,37.0,29.85,NW,317,16.0,18.0,71,0.00,,,0.02,Wunderground v.1.15,2013-02-24 21:21:00,
2013-02-24 16:26:00,46.2,37.3,29.85,NW,319,15.0,19.0,71,0.00,,,0.02,Wunderground v.1.15,2013-02-24 21:26:00,
2013-02-24 16:31:00,46.0,37.1,29.85,NNW,328,18.0,20.0,71,0.00,,,0.02,Wunderground v.1.15,2013-02-24 21:31:00,
2013-02-24 16:36:00,46.1,37.2,29.86,NW,325,14.0,20.0,71,0.00,,,0.02,Wunderground v.1.15,2013-02-24 21:36:00,
2013-02-24 16:41:00,46.1,37.9,29.86,NW,323,9.0,15.0,73,0.00,,,0.02,Wunderground v.1.15,2013-02-24 21:41:00,
2013-02-24 16:46:00,46.1,37.9,29.86,NNW,333,5.0,15.0,73,0.00,,,0.02,Wunderground v.1.15,2013-02-24 21:46:00,
2013-02-24 16:51:00,46.4,37.5,29.87,NW,316,5.0,8.0,71,0.00,,,0.02,Wunderground v.1.15,2013-02-24 21:51:00,
2013-02-24 16:56:00,46.7,37.4,29.87,NW,309,3.0,12.0,70,0.00,,,0.02,Wunderground v.1.15,2013-02-24 21:56:00,
2013-02-24 17:01:00,46.7,37.4,29.87,NNW,334,5.0,11.0,70,0.00,,,0.02,Wunderground v.1.15,2013-02-24 22:01:00,
2013-02-24 17:06:00,46.7,37.4,29.88,NNW,336,10.0,12.0,70,0.00,,,0.02,Wunderground v.1.15,2013-02-24 22:06:00,
2013-02-24 17:11:00,46.6,36.6,29.88,NNW,346,4.0,13.0,68,0.00,,,0.02,Wunderground v.1.15,2013-02-24 22:11:00,
2013-02-24 17:16:00,46.4,37.5,29.88,NE,47,10.0,15.0,71,0.00,,,0.02,Wunderground v.1.15,2013-02-24 22:16:00,
2013-02-24 17:21:00,46.1,36.9,29.89,North,355,4.0,15.0,70,0.00,,,0.02,Wunderground v.1.15,2013-02-24 22:21:00,
2013-02-24 17:26:00,45.9,37.0,29.90,NNE,33,5.0,15.0,71,0.00,,,0.02,Wunderground v.1.15,2013-02-24 22:26:00,
2013-02-24 17:31:00,45.6,36.7,29.90,North,5,8.0,11.0,71,0.00,,,0.02,Wunderground v.1.15,2013-02-24 22:31:00,
2013-02-24 17:36:00,45.1,36.6,29.90,NW,325,6.0,13.0,72,0.00,,,0.02,Wunderground v.1.15,2013-02-24 22:36:00,
2013-02-24 17:41:00,44.6,36.1,29.90,NE,42,6.0,9.0,72,0.00,,,0.02,Wunderground v.1.15,2013-02-24 22:41:00,
2013-02-24 17:46:00,44.2,35.7,29.91,NNW,336,3.0,12.0,72,0.00,,,0.02,Wunderground v.1.15,2013-02-24 22:46:00,
2013-02-24 17:51:00,43.9,34.7,29.91,NNE,15,3.0,9.0,70,0.00,,,0.02,Wunderground v.1.15,2013-02-24 22:51:00,
2013-02-24 17:56:00,43.7,34.9,29.92,North,360,1.0,9.0,71,0.00,,,0.02,Wunderground v.1.15,2013-02-24 22:56:00,
2013-02-24 18:01:00,43.5,35.4,29.92,North,11,5.0,10.0,73,0.00,,,0.02,Wunderground v.1.15,2013-02-24 23:01:00,
2013-02-24 18:06:00,43.2,35.5,29.93,North,5,3.0,12.0,74,0.00,,,0.02,Wunderground v.1.15,2013-02-24 23:06:00,
2013-02-24 18:11:00,43.0,35.3,29.93,North,11,3.0,9.0,74,0.00,,,0.02,Wunderground v.1.15,2013-02-24 23:11:00,
2013-02-24 18:16:00,42.8,35.1,29.93,NW,311,7.0,14.0,74,0.00,,,0.02,Wunderground v.1.15,2013-02-24 23:16:00,
2013-02-24 18:21:00,42.6,34.5,29.94,NNW,331,17.0,21.0,73,0.00,,,0.02,Wunderground v.1.15,2013-02-24 23:21:00,
2013-02-24 18:26:00,42.4,34.4,29.95,NNW,338,6.0,21.0,73,0.00,,,0.02,Wunderground v.1.15,2013-02-24 23:26:00,
2013-02-24 18:31:00,42.3,34.6,29.95,NNW,331,28.0,29.0,74,0.00,,,0.02,Wunderground v.1.15,2013-02-24 23:31:00,
2013-02-24 18:36:00,42.1,34.4,29.96,NW,326,18.0,29.0,74,0.00,,,0.02,Wunderground v.1.15,2013-02-24 23:36:00,
2013-02-24 18:41:00,41.9,34.2,29.96,NNW,346,20.0,25.0,74,0.00,,,0.02,Wunderground v.1.15,2013-02-24 23:41:00,
2013-02-24 18:46:00,41.7,34.7,29.97,NNW,327,26.0,30.0,76,0.00,,,0.02,Wunderground v.1.15,2013-02-24 23:46:00,
2013-02-24 18:51:00,41.5,33.5,29.97,NNW,331,27.0,32.0,73,0.00,,,0.02,Wunderground v.1.15,2013-02-24 23:51:00,
2013-02-24 18:57:00,41.5,33.5,29.98,NNW,331,23.0,33.0,73,0.00,,,0.02,Wunderground v.1.15,2013-02-24 23:57:00,
2013-02-24 19:02:00,41.4,33.7,29.98,NNW,330,27.0,30.0,74,0.00,,,0.02,Wunderground v.1.15,2013-02-25 00:02:00,
2013-02-24 19:07:00,41.3,34.0,29.98,NNW,331,19.0,30.0,75,0.00,,,0.02,Wunderground v.1.15,2013-02-25 00:07:00,
2013-02-24 19:12:00,40.9,32.6,29.98,NW,322,16.0,27.0,72,0.00,,,0.02,Wunderground v.1.15,2013-02-25 00:12:00,
2013-02-24 19:17:00,40.7,32.7,29.98,NNW,337,27.0,33.0,73,0.00,,,0.02,Wunderground v.1.15,2013-02-25 00:17:00,
2013-02-24 19:22:00,40.5,32.5,29.99,NNW,331,26.0,33.0,73,0.00,,,0.02,Wunderground v.1.15,2013-02-25 00:22:00,
2013-02-24 19:27:00,40.5,32.9,29.99,NNW,346,31.0,33.0,74,0.00,,,0.02,Wunderground v.1.15,2013-02-25 00:27:00,
2013-02-24 19:32:00,40.3,32.3,30.00,NNW,347,23.0,31.0,73,0.00,,,0.02,Wunderground v.1.15,2013-02-25 00:32:00,
2013-02-24 19:37:00,40.2,32.2,30.00,NNW,329,27.0,31.0,73,0.00,,,0.02,Wunderground v.1.15,2013-02-25 00:37:00,
2013-02-24 19:42:00,40.0,31.7,30.00,NNW,329,23.0,31.0,72,0.00,,,0.02,Wunderground v.1.15,2013-02-25 00:42:00,
2013-02-24 19:47:00,39.9,31.9,30.00,NNW,330,14.0,31.0,73,0.00,,,0.02,Wunderground v.1.15,2013-02-25 00:47:00,
2013-02-24 19:53:00,39.8,31.5,30.00,North,351,19.0,31.0,72,0.00,,,0.02,Wunderground v.1.15,2013-02-25 00:53:00,
2013-02-24 19:58:00,39.7,31.4,30.01,NNW,332,25.0,31.0,72,0.00,,,0.02,Wunderground v.1.15,2013-02-25 00:58:00,
2013-02-24 20:03:00,39.6,31.0,30.01,NNW,342,18.0,29.0,71,0.00,,,0.02,Wunderground v.1.15,2013-02-25 01:03:00,
2013-02-24 20:08:00,39.6,31.0,30.01,NW,324,19.0,30.0,71,0.00,,,0.02,Wunderground v.1.15,2013-02-25 01:08:00,
2013-02-24 20:13:00,39.4,30.4,30.02,NW,323,21.0,24.0,70,0.00,,,0.02,Wunderground v.1.15,2013-02-25 01:13:00,
2013-02-24 20:18:00,39.3,30.7,30.02,NNW,331,26.0,27.0,71,0.00,,,0.02,Wunderground v.1.15,2013-02-25 01:18:00,
2013-02-24 20:23:00,39.3,30.7,30.03,NNW,332,14.0,27.0,71,0.00,,,0.02,Wunderground v.1.15,2013-02-25 01:23:00,
2013-02-24 20:28:00,39.1,30.1,30.03,NNW,337,22.0,28.0,70,0.00,,,0.02,Wunderground v.1.15,2013-02-25 01:28:00,
2013-02-24 20:33:00,39.0,30.7,30.03,NNW,327,19.0,23.0,72,0.00,,,0.02,Wunderground v.1.15,2013-02-25 01:33:00,
2013-02-24 20:38:00,38.9,30.6,30.03,NNW,342,20.0,26.0,72,0.00,,,0.02,Wunderground v.1.15,2013-02-25 01:38:00,
2013-02-24 20:43:00,38.9,30.6,30.04,NNW,333,17.0,28.0,72,0.00,,,0.02,Wunderground v.1.15,2013-02-25 01:43:00,
2013-02-24 20:48:00,38.8,30.5,30.04,NNW,328,24.0,28.0,72,0.00,,,0.02,Wunderground v.1.15,2013-02-25 01:48:00,
2013-02-24 20:53:00,38.8,30.5,30.05,NNW,327,22.0,28.0,72,0.00,,,0.02,Wunderground v.1.15,2013-02-25 01:53:00,
2013-02-24 20:58:00,38.8,31.2,30.04,NW,325,18.0,28.0,74,0.00,,,0.02,Wunderground v.1.15,2013-02-25 01:58:00,
2013-02-24 21:03:00,38.7,30.4,30.04,NNW,340,23.0,28.0,72,0.00,,,0.02,Wunderground v.1.15,2013-02-25 02:03:00,
2013-02-24 21:08:00,38.6,30.7,30.04,NNW,331,26.0,33.0,73,0.00,,,0.02,Wunderground v.1.15,2013-02-25 02:08:00,
2013-02-24 21:13:00,38.5,30.3,30.05,NNW,332,24.0,29.0,72,0.00,,,0.02,Wunderground v.1.15,2013-02-25 02:13:00,
2013-02-24 21:18:00,38.5,30.6,30.05,NNW,327,26.0,32.0,73,0.00,,,0.02,Wunderground v.1.15,2013-02-25 02:18:00,
2013-02-24 21:23:00,38.4,30.8,30.06,NNW,338,26.0,26.0,74,0.00,,,0.02,Wunderground v.1.15,2013-02-25 02:23:00,
2013-02-24 21:28:00,38.4,30.5,30.06,NW,322,25.0,27.0,73,0.00,,,0.02,Wunderground v.1.15,2013-02-25 02:28:00,
2013-02-24 21:33:00,38.4,31.2,30.06,NNW,333,22.0,28.0,75,0.00,,,0.02,Wunderground v.1.15,2013-02-25 02:33:00,
2013-02-24 21:38:00,38.4,30.5,30.07,NW,326,20.0,28.0,73,0.00,,,0.02,Wunderground v.1.15,2013-02-25 02:38:00,
2013-02-24 21:43:00,38.2,30.0,30.07,NNW,345,20.0,27.0,72,0.00,,,0.02,Wunderground v.1.15,2013-02-25 02:43:00,
2013-02-24 21:48:00,38.2,30.0,30.06,NNW,327,23.0,28.0,72,0.00,,,0.02,Wunderground v.1.15,2013-02-25 02:48:00,
2013-02-24 21:53:00,38.1,30.2,30.06,NW,307,20.0,26.0,73,0.00,,,0.02,Wunderground v.1.15,2013-02-25 02:53:00,
2013-02-24 21:58:00,38.1,30.5,30.06,NNW,336,18.0,27.0,74,0.00,,,0.02,Wunderground v.1.15,2013-02-25 02:58:00,
2013-02-24 22:03:00,38.0,30.1,30.06,NW,321,25.0,29.0,73,0.00,,,0.02,Wunderground v.1.15,2013-02-25 03:03:00,
2013-02-24 22:08:00,38.0,30.8,30.06,NW,323,26.0,29.0,75,0.00,,,0.02,Wunderground v.1.15,2013-02-25 03:08:00,
2013-02-24 22:13:00,37.9,30.4,30.06,NW,325,24.0,28.0,74,0.00,,,0.02,Wunderground v.1.15,2013-02-25 03:13:00,
2013-02-24 22:18:00,37.8,30.3,30.06,NNW,331,21.0,28.0,74,0.00,,,0.02,Wunderground v.1.15,2013-02-25 03:18:00,
2013-02-24 22:24:00,37.8,30.3,30.07,NNW,332,22.0,28.0,74,0.00,,,0.02,Wunderground v.1.15,2013-02-25 03:24:00,
2013-02-24 22:28:00,37.7,30.2,30.07,NNW,333,22.0,28.0,74,0.00,,,0.02,Wunderground v.1.15,2013-02-25 03:28:00,
2013-02-24 22:33:00,37.6,29.7,30.07,NW,317,23.0,27.0,73,0.00,,,0.02,Wunderground v.1.15,2013-02-25 03:33:00,
2013-02-24 22:38:00,37.6,29.7,30.07,NNW,340,23.0,27.0,73,0.00,,,0.02,Wunderground v.1.15,2013-02-25 03:38:00,
2013-02-24 22:44:00,37.6,30.1,30.07,NW,318,22.0,26.0,74,0.00,,,0.02,Wunderground v.1.15,2013-02-25 03:44:00,
2013-02-24 22:49:00,37.5,30.0,30.07,NW,322,24.0,26.0,74,0.00,,,0.02,Wunderground v.1.15,2013-02-25 03:49:00,
2013-02-24 22:54:00,37.5,30.6,30.06,NNW,330,22.0,26.0,76,0.00,,,0.02,Wunderground v.1.15,2013-02-25 03:54:00,
2013-02-24 22:59:00,37.5,30.3,30.07,NW,325,18.0,26.0,75,0.00,,,0.02,Wunderground v.1.15,2013-02-25 03:59:00,
2013-02-24 23:04:00,37.4,30.2,30.07,NW,317,16.0,27.0,75,0.00,,,0.02,Wunderground v.1.15,2013-02-25 04:04:00,
2013-02-24 23:09:00,37.3,29.8,30.07,NNW,338,24.0,27.0,74,0.00,,,0.02,Wunderground v.1.15,2013-02-25 04:09:00,
2013-02-24 23:14:00,37.2,29.7,30.07,NW,324,24.0,24.0,74,0.00,,,0.02,Wunderground v.1.15,2013-02-25 04:14:00,
2013-02-24 23:19:00,37.1,29.6,30.07,NNW,336,20.0,24.0,74,0.00,,,0.02,Wunderground v.1.15,2013-02-25 04:19:00,
2013-02-24 23:24:00,37.1,29.9,30.07,NW,317,18.0,24.0,75,0.00,,,0.02,Wunderground v.1.15,2013-02-25 04:24:00,
2013-02-24 23:29:00,37.1,29.9,30.07,NW,314,22.0,26.0,75,0.00,,,0.02,Wunderground v.1.15,2013-02-25 04:29:00,
2013-02-24 23:34:00,37.1,30.2,30.07,North,355,24.0,27.0,76,0.00,,,0.02,Wunderground v.1.15,2013-02-25 04:34:00,
2013-02-24 23:39:00,37.0,29.8,30.07,NNW,329,19.0,27.0,75,0.00,,,0.02,Wunderground v.1.15,2013-02-25 04:39:00,
2013-02-24 23:44:00,37.0,30.5,30.07,NNW,333,26.0,26.0,77,0.00,,,0.02,Wunderground v.1.15,2013-02-25 04:44:00,
2013-02-24 23:49:00,36.9,29.7,30.07,NNW,327,21.0,27.0,75,0.00,,,0.02,Wunderground v.1.15,2013-02-25 04:49:00,
2013-02-24 23:54:00,36.9,30.0,30.07,NW,325,23.0,26.0,76,0.00,,,0.02,Wunderground v.1.15,2013-02-25 04:54:00,
2013-02-24 23:59:00,36.8,29.9,30.07,NNW,338,19.0,28.0,76,0.00,,,0.02,Wunderground v.1.15,2013-02-25 04:59:00,